Temp
6 6 6 6 6 6 6 6 6 6 6 6 5 4 3 2 1 1 -1 -2 -3 -4 -4 -4 -5 -7 -5 -5 -6 -7 -8 -7 -4 -4 -3 -3 -2 -2 -2 -1 1 2 1 2 4
6 6 6 6 6 6 6 6 6 6 5 5 4 3 3 2 1 -0 -2 -3 -4 -4 -5 -5 -6 -6 -7 -8 -8 -8 -8 -7 -6 -6 -5 -4 -5 -4 -2 -2 0 1 1 1 2
5 5 5 6 6 6 6 6 6 5 5 4 4 3 2 1 -1 -2 -4 -4 -4 -5 -6 -7 -7 -9 -9 -9 -9 -8 -8 -8 -7 -7 -7 -7 -6 -7 -4 -2 -3 -1 1 0 0
5 5 5 6 6 6 6 6 5 5 4 4 3 2 1 -0 -2 -3 -4 -5 -5 -5 -6 -7 -8 -9 -10 -9 -9 -9 -9 -8 -8 -8 -8 -8 -7 -7 -7 -7 -6 -3 -2 -1 -0
5 5 6 6 6 6 6 5 5 4 4 3 2 2 0 -1 -2 -4 -5 -4 -5 -6 -7 -7 -8 -9 -10 -10 -9 -9 -9 -9 -9 -9 -8 -9 -8 -7 -7 -8 -7 -6 -4 -2 -0
5 5 5 6 6 5 5 5 4 4 3 2 2 1 -1 -2 -4 -4 -4 -4 -6 -6 -7 -8 -8 -9 -10 -10 -10 -9 -10 -9 -9 -9 -9 -9 -9 -9 -8 -8 -7 -6 -5 -4 -3
5 5 5 5 5 5 5 5 4 3 3 2 1 -0 -1 -3 -4 -4 -5 -5 -6 -7 -7 -8 -9 -9 -10 -10 -9 -10 -10 -9 -9 -9 -9 -9 -9 -9 -8 -8 -8 -8 -6 -4 -4
5 5 5 5 5 5 5 4 4 3 2 1 0 -1 -2 -3 -4 -4 -5 -5 -6 -8 -8 -8 -9 -9 -11 -11 -11 -11 -10 -10 -7 -9 -9 -9 -9 -9 -8 -8 -8 -8 -7 -6 -3
4 4 4 5 5 5 5 4 4 3 1 1 -1 -1 -3 -4 -4 -4 -5 -6 -6 -7 -8 -8 -10 -10 -11 -11 -11 -10 -10 -10 -9 -9 -9 -9 -9 -8 -8 -8 -8 -8 -7 -6 -4
4 4 4 5 5 4 4 4 3 2 1 0 -1 -3 -4 -4 -4 -4 -5 -6 -6 -7 -9 -10 -10 -11 -10 -11 -10 -10 -10 -10 -10 -9 -9 -9 -9 -9 -9 -8 -8 -8 -7 -7 -5
4 4 5 4 4 4 4 3 3 1 -0 -1 -2 -3 -4 -4 -5 -5 -6 -6 -7 -8 -10 -10 -11 -10 -10 -11 -10 -11 -11 -11 -10 -10 -10 -9 -9 -9 -9 -8 -8 -8 -8 -7 -6
4 5 4 4 3 3 3 3 3 1 -1 -1 -2 -3 -4 -4 -4 -6 -6 -7 -7 -7 -10 -10 -10 -10 -10 -11 -11 -11 -11 -11 -10 -10 -10 -9 -10 -9 -9 -9 -9 -8 -8 -7 -6
4 4 4 4 3 3 3 3 2 1 -1 -2 -2 -3 -4 -5 -6 -6 -6 -7 -8 -9 -11 -11 -10 -10 -10 -10 -11 -11 -11 -10 -10 -10 -10 -10 -10 -9 -9 -9 -9 -8 -8 -7 -7
4 3 3 3 3 3 2 3 1 -0 -2 -2 -3 -4 -4 -5 -7 -7 -7 -8 -9 -10 -11 -10 -10 -10 -10 -11 -11 -11 -10 -11 -11 -11 -10 -9 -10 -9 -9 -9 -8 -8 -8 -8 -7
3 3 3 2 2 2 2 2 1 -1 -3 -2 -3 -3 -4 -6 -6 -7 -8 -9 -9 -9 -12 -10 -11 -11 -10 -11 -11 -12 -12 -12 -11 -11 -10 -9 -10 -9 -9 -10 -11 -10 -8 -8 -7
3 3 2 2 2 2 2 1 -0 -1 -3 -3 -3 -4 -4 -6 -7 -8 -9 -11 -10 -9 -10 -10 -9 -10 -11 -11 -11 -12 -11 -10 -10 -10 -11 -9 -9 -12 -12 -13 -13 -11 -8 -8 -7
2 3 2 1 1 1 1 0 -1 -2 -2 -3 -3 -4 -5 -7 -8 -9 -10 -11 -11 -12 -11 -10 -10 -10 -11 -11 -11 -11 -12 -13 -9 -9 -10 -8 -9 -15 -15 -14 -12 -11 -10 -10 -8
2 2 2 2 1 0 0 -0 -2 -3 -3 -4 -4 -4 -6 -9 -9 -9 -10 -11 -12 -13 -13 -13 -12 -10 -11 -12 -12 -13 -13 -12 -15 -13 -10 -8 -11 -15 -16 -15 -13 -12 -11 -9 -9
2 2 2 1 0 0 -1 -1 -2 -3 -4 -5 -5 -6 -8 -9 -9 -10 -11 -11 -12 -13 -14 -14 -12 -10 -12 -12 -12 -13 -13 -13 -15 -12 -13 -12 -15 -16 -16 -15 -14 -13 -12 -11 -8
2 2 1 1 -0 -1 -0 -2 -3 -4 -5 -5 -7 -8 -10 -9 -10 -11 -11 -11 -12 -12 -13 -13 -13 -12 -11 -12 -13 -13 -14 -15 -14 -13 -11 -10 -15 -18 -16 -15 -14 -13 -12 -12 -10
1 2 1 -0 -1 -0 -2 -3 -3 -4 -5 -6 -8 -9 -9 -11 -11 -11 -11 -11 -13 -12 -12 -13 -14 -12 -12 -12 -13 -14 -15 -15 -16 -15 -13 -13 -17 -19 -18 -18 -16 -15 -14 -13 -11
1 1 0 -1 -1 -2 -2 -4 -4 -5 -6 -6 -8 -9 -10 -12 -11 -12 -10 -12 -12 -13 -13 -13 -14 -14 -13 -13 -14 -15 -16 -16 -17 -15 -16 -15 -18 -19 -18 -17 -16 -16 -15 -14 -13
1 1 0 -1 -1 -2 -3 -4 -4 -5 -7 -8 -8 -9 -10 -11 -12 -11 -11 -10 -12 -13 -14 -14 -14 -14 -13 -13 -14 -15 -16 -16 -16 -17 -16 -15 -17 -18 -17 -16 -17 -16 -16 -14 -13
-0 -1 -2 -2 -2 -3 -3 -4 -5 -6 -6 -8 -9 -9 -11 -10 -12 -11 -11 -12 -13 -14 -14 -14 -14 -14 -16 -14 -14 -15 -16 -16 -16 -17 -18 -18 -18 -17 -18 -18 -17 -17 -16 -15 -14
-1 -2 -2 -3 -3 -4 -5 -4 -5 -7 -8 -8 -8 -9 -11 -12 -12 -11 -12 -13 -13 -13 -14 -14 -15 -15 -14 -14 -14 -15 -16 -16 -16 -17 -18 -17 -19 -18 -19 -18 -18 -18 -17 -15 -15
-2 -3 -4 -3 -4 -4 -5 -5 -6 -7 -8 -8 -9 -10 -12 -13 -12 -12 -13 -13 -14 -14 -15 -15 -15 -15 -14 -13 -14 -15 -16 -16 -16 -17 -18 -18 -19 -19 -19 -19 -18 -18 -17 -16 -15
-3 -3 -5 -4 -5 -5 -5 -6 -6 -8 -8 -8 -10 -12 -12 -11 -13 -11 -12 -12 -13 -14 -14 -15 -15 -15 -15 -14 -14 -15 -15 -16 -16 -16 -17 -18 -18 -18 -18 -18 -18 -18 -18 -17 -16
Height
3090 3086 3084 3082 3078 3075 3073 3070 3067 3064 3060 3057 3054 3050 3045 3042 3039 3038 3035 3036 3034 3031 3029 3025 3024 3022 3021 3021 3021 3022 3020 3010 3009 3015 3019 3025 3024 3024 3020 3017 3027 3033 3037 3047 3055
3088 3085 3082 3079 3076 3073 3071 3068 3064 3061 3058 3053 3050 3046 3042 3039 3036 3034 3034 3033 3032 3029 3026 3023 3021 3020 3018 3017 3019 3019 3014 3005 3010 3012 3013 3014 3016 3011 3008 3010 3017 3021 3030 3030 3037
3086 3082 3079 3076 3074 3071 3069 3065 3061 3058 3054 3050 3046 3043 3041 3038 3034 3032 3030 3028 3027 3023 3021 3020 3017 3017 3014 3014 3014 3013 3006 3008 3001 3006 3008 3004 3005 3003 3000 2997 3010 3009 3016 3020 3022
3084 3081 3078 3075 3072 3069 3066 3063 3059 3055 3051 3048 3045 3042 3039 3036 3038 3032 3029 3026 3022 3018 3016 3013 3013 3011 3012 3009 3009 3006 3004 3003 2998 2997 2998 2997 2996 2993 2995 2994 2995 2996 2999 3006 3012
3082 3079 3076 3073 3070 3067 3063 3061 3057 3053 3049 3045 3042 3040 3037 3034 3031 3029 3025 3022 3019 3013 3012 3010 3008 3006 3005 3004 3003 3001 2998 2997 2995 2991 2989 2990 2987 2984 2982 2987 2988 2992 2993 2998 3005
3082 3078 3074 3070 3068 3065 3062 3059 3055 3051 3046 3043 3041 3039 3036 3033 3029 3025 3022 3017 3014 3011 3009 3006 3004 3003 2998 2997 2996 2994 2991 2987 2987 2984 2981 2982 2978 2980 2976 2981 2982 2985 2986 2989 2997
3081 3077 3073 3069 3067 3064 3061 3057 3052 3048 3043 3040 3039 3036 3033 3032 3026 3022 3018 3013 3011 3006 3004 3003 3000 2998 2995 2990 2988 2988 2985 2980 2976 2978 2975 2977 2968 2970 2971 2974 2974 2975 2975 2982 2990
3080 3076 3073 3068 3066 3064 3060 3054 3049 3044 3041 3038 3037 3033 3030 3027 3023 3019 3014 3010 3007 3003 2999 2997 2995 2991 2990 2987 2982 2983 2979 2974 2965 2973 2972 2973 2957 2964 2966 2968 2967 2966 2967 2967 2968
3079 3076 3072 3068 3066 3062 3057 3052 3046 3042 3039 3037 3036 3030 3027 3024 3018 3014 3011 3007 3002 2999 2996 2992 2990 2987 2986 2984 2978 2978 2971 2969 2960 2968 2966 2965 2955 2957 2959 2960 2959 2959 2959 2962 2965
3078 3075 3071 3068 3065 3060 3055 3049 3044 3040 3038 3036 3033 3031 3025 3023 3018 3012 3009 3002 2996 2992 2990 2989 2986 2982 2981 2980 2975 2973 2971 2965 2960 2959 2961 2955 2951 2949 2950 2952 2951 2951 2953 2953 2952
3077 3073 3070 3067 3063 3058 3053 3047 3045 3041 3035 3034 3033 3029 3025 3022 3013 3007 3000 3000 2995 2993 2988 2987 2984 2980 2977 2975 2972 2970 2966 2961 2951 2953 2953 2945 2944 2942 2941 2943 2942 2944 2945 2947 2947
3076 3073 3070 3066 3061 3056 3051 3045 3040 3038 3033 3032 3030 3025 3019 3016 3011 3004 3000 2996 2992 2987 2985 2983 2978 2976 2973 2972 2968 2965 2961 2952 2943 2946 2947 2940 2934 2932 2931 2932 2935 2938 2940 2941 2939
3075 3072 3068 3064 3059 3056 3049 3044 3038 3034 3031 3030 3029 3024 3020 3014 3007 3004 2998 2993 2988 2984 2982 2978 2974 2975 2973 2969 2964 2959 2954 2947 2942 2938 2935 2933 2925 2924 2922 2924 2927 2931 2934 2931 2928
3074 3070 3066 3062 3058 3051 3047 3041 3036 3031 3028 3030 3024 3018 3018 3014 3006 3002 2999 2994 2988 2983 2976 2973 2972 2971 2969 2967 2962 2951 2950 2943 2935 2935 2926 2927 2917 2914 2916 2915 2921 2917 2919 2921 2922
3072 3068 3064 3058 3053 3050 3046 3039 3035 3031 3032 3027 3023 3019 3016 3013 3007 3000 2996 2991 2987 2983 2979 2972 2965 2964 2965 2963 2960 2949 2939 2934 2929 2926 2924 2911 2920 2913 2909 2906 2906 2908 2911 2914 2916
3072 3067 3061 3057 3053 3048 3043 3038 3034 3033 3029 3027 3022 3017 3013 3008 3005 2999 2995 2991 2985 2981 2977 2971 2966 2963 2961 2960 2956 2947 2932 2923 2920 2920 2916 2905 2914 2908 2906 2906 2904 2904 2906 2907 2910
3071 3065 3059 3054 3051 3045 3040 3037 3035 3032 3032 3027 3021 3015 3011 3006 3001 2997 2993 2989 2984 2976 2972 2965 2964 2962 2959 2953 2951 2945 2935 2923 2915 2914 2908 2903 2903 2911 2908 2905 2903 2901 2902 2903 2905
3067 3063 3058 3053 3048 3044 3039 3037 3032 3030 3027 3023 3017 3012 3008 3004 2998 2994 2992 2990 2985 2982 2976 2971 2964 2962 2957 2953 2949 2944 2943 2941 2936 2918 2906 2901 2904 2910 2906 2904 2901 2900 2900 2900 2901
3066 3061 3056 3051 3046 3042 3039 3035 3034 3029 3024 3018 3014 3008 3008 3006 3000 2993 2990 2988 2984 2981 2981 2974 2965 2959 2956 2951 2951 2945 2943 2940 2933 2914 2913 2900 2907 2907 2905 2903 2900 2898 2898 2896 2898
3064 3058 3053 3048 3044 3040 3037 3035 3030 3026 3020 3015 3012 3009 3005 3002 2998 2993 2988 2986 2984 2982 2978 2974 2964 2959 2959 2953 2949 2947 2945 2939 2936 2924 2910 2900 2908 2910 2904 2901 2898 2896 2893 2892 2892
3061 3055 3051 3046 3042 3038 3034 3030 3026 3022 3018 3015 3010 3006 3003 2999 2995 2992 2988 2986 2980 2978 2977 2970 2967 2957 2954 2951 2948 2946 2943 2943 2940 2933 2923 2917 2917 2914 2908 2903 2898 2895 2894 2890 2885
3059 3053 3048 3043 3040 3033 3030 3027 3023 3018 3013 3010 3006 3002 2999 2996 2991 2988 2985 2983 2978 2974 2971 2969 2963 2956 2952 2949 2947 2944 2943 2942 2940 2933 2930 2924 2920 2913 2909 2904 2899 2895 2892 2890 2887
3053 3050 3045 3040 3036 3031 3027 3022 3019 3014 3010 3004 3001 2997 2995 2993 2991 2983 2979 2977 2975 2973 2969 2967 2963 2956 2951 2950 2946 2943 2940 2941 2937 2932 2928 2924 2919 2915 2910 2903 2898 2895 2893 2889 2888
3049 3044 3037 3034 3031 3027 3022 3017 3012 3007 3004 3000 2997 2993 2990 2987 2986 2978 2975 2973 2972 2969 2967 2964 2960 2958 2955 2949 2946 2941 2938 2937 2935 2932 2926 2922 2916 2913 2910 2904 2898 2894 2890 2890 2885
3045 3039 3036 3033 3028 3022 3014 3011 3008 3003 3000 2996 2992 2989 2986 2981 2978 2973 2972 2971 2968 2965 2962 2960 2955 2953 2949 2945 2940 2936 2933 2933 2931 2929 2927 2921 2915 2910 2906 2902 2898 2893 2889 2883 2880
3039 3033 3025 3022 3020 3015 3011 3004 3001 2998 2995 2990 2984 2984 2981 2976 2973 2967 2967 2966 2963 2958 2955 2954 2949 2947 2942 2940 2936 2933 2928 2927 2927 2924 2922 2919 2915 2909 2904 2901 2898 2893 2890 2888 2883
3032 3027 3020 3016 3011 3008 3005 2999 2995 2991 2986 2984 2980 2976 2972 2970 2966 2963 2961 2958 2955 2953 2951 2950 2945 2943 2937 2936 2934 2928 2922 2923 2922 2920 2918 2916 2915 2909 2903 2896 2894 2892 2891 2889 2888
Wind_Speed
18 20 20 19 20 22 25 25 27 29 30 32 33 33 33 32 30 28 22 20 21 23 26 24 19 17 19 16 16 14 24 36 55 56 51 38 41 47 44 41 43 46 32 27 35
19 20 20 20 21 23 23 24 26 28 30 31 32 31 31 29 28 23 23 20 23 27 24 21 18 16 15 14 12 16 28 41 38 35 43 46 38 44 54 49 51 46 35 37 43
20 19 19 19 21 21 22 24 27 28 29 30 31 28 26 26 28 17 21 27 29 27 24 21 17 15 17 14 15 19 34 34 40 32 30 34 40 40 49 53 43 51 45 37 42
19 18 18 19 21 20 22 25 27 28 29 30 26 25 23 23 10 18 24 29 28 28 24 23 21 19 19 23 20 26 30 32 36 37 36 37 38 42 38 41 43 50 58 42 42
16 16 17 19 19 21 24 25 27 28 28 27 22 21 24 21 18 20 28 30 29 28 25 24 21 20 22 22 23 26 29 31 32 35 38 35 37 47 48 38 40 45 49 55 49
16 16 16 19 19 23 25 26 27 28 26 25 18 23 20 16 23 26 29 30 28 27 24 20 20 21 28 26 25 29 32 36 37 38 40 34 39 37 43 41 41 50 54 52 55
15 15 16 18 21 24 25 27 28 27 24 19 17 23 15 18 23 28 29 31 24 22 22 19 21 22 24 30 24 18 26 30 32 34 38 34 44 41 41 33 31 32 52 57 52
15 15 17 19 23 24 25 27 28 26 22 13 17 25 13 23 26 28 32 24 23 21 22 22 22 25 25 27 30 26 28 35 35 32 33 30 45 41 34 31 30 33 36 41 60
17 18 19 20 23 24 26 27 28 24 20 10 17 21 20 26 31 32 24 25 24 17 17 19 18 18 17 21 26 19 29 33 42 30 31 35 44 40 36 32 35 31 26 42 55
18 18 20 20 23 24 26 28 28 21 21 9 18 17 25 27 28 25 24 27 25 24 24 13 19 21 20 19 24 26 31 37 39 38 33 36 38 38 37 33 34 32 31 28 49
19 20 20 18 22 25 27 29 27 17 22 6 20 25 24 26 29 27 32 28 23 22 18 17 18 24 25 21 23 26 31 35 44 37 32 41 39 38 36 33 32 32 30 29 39
21 20 19 19 22 25 27 29 26 21 15 6 24 27 27 29 27 27 30 29 24 22 15 20 19 11 14 15 24 27 32 41 42 33 29 33 40 40 38 37 36 32 29 24 38
20 20 21 19 22 23 25 27 23 23 7 7 23 20 27 30 24 27 29 27 26 16 18 21 17 11 19 25 28 31 30 41 35 34 34 35 39 36 35 32 34 31 31 37 31
20 19 21 20 24 26 26 26 20 20 3 6 22 19 28 23 17 25 24 23 23 18 26 9 4 18 24 19 22 33 33 38 37 29 25 16 10 23 22 32 31 32 37 36 35
20 18 20 20 25 25 26 23 17 11 2 19 19 24 26 21 24 18 26 21 21 26 17 15 30 26 20 18 24 36 36 32 31 31 28 37 12 9 11 3 15 28 32 35 34
24 21 22 20 22 25 25 21 9 5 3 16 22 28 27 20 20 20 21 17 9 23 9 22 14 11 10 20 32 28 34 32 31 25 12 38 17 4 6 10 9 18 30 35 36
24 22 23 21 23 24 24 19 3 3 18 9 22 29 21 21 16 18 18 17 21 21 32 25 12 11 19 31 26 26 28 5 2 5 4 16 13 5 5 9 10 8 16 24 34
26 23 23 22 24 23 22 16 2 9 15 22 24 22 16 20 13 19 15 13 18 17 19 15 11 15 27 23 30 14 16 7 6 4 8 14 5 4 8 9 10 11 12 15 27
27 25 23 24 23 22 20 8 8 14 20 23 21 13 7 9 18 16 15 12 16 17 16 10 9 19 11 26 24 18 21 15 9 23 8 7 8 4 10 9 9 10 12 11 21
28 28 21 26 21 21 21 14 15 17 20 20 13 8 11 18 16 18 11 9 14 16 18 12 16 9 14 22 15 18 20 11 11 6 6 6 8 13 24 16 13 11 12 9 11
30 30 22 26 20 23 17 18 20 20 20 16 13 15 17 17 15 14 6 11 10 20 22 12 10 22 19 19 16 14 14 12 10 7 4 7 4 16 24 24 20 15 13 12 8
30 28 22 27 22 27 25 25 22 21 22 19 15 14 16 15 18 10 8 10 18 23 26 8 11 16 29 16 10 13 13 18 3 7 9 8 3 14 27 26 20 16 15 13 11
32 27 23 26 17 28 27 28 22 21 22 20 18 19 15 20 12 11 14 14 20 22 15 12 4 11 9 5 11 14 20 18 17 10 6 6 2 15 27 21 17 15 14 14 11
34 27 29 20 29 26 28 23 25 23 23 20 25 21 17 22 16 15 24 20 22 24 16 21 15 13 13 23 28 27 24 16 14 6 13 7 19 22 24 18 15 12 13 14 13
34 29 29 26 24 26 29 28 23 22 26 29 19 17 17 17 21 20 15 17 25 26 16 11 21 23 21 24 22 19 23 18 15 10 5 14 15 19 24 19 17 17 15 14 14
36 34 35 35 32 31 27 29 27 23 28 28 26 20 21 24 25 31 28 25 24 21 18 22 17 18 31 19 15 17 23 20 15 11 8 10 11 18 20 17 16 17 16 13 13
35 34 35 36 34 33 31 29 30 28 28 29 29 27 29 29 24 26 26 28 31 30 26 29 29 15 10 13 21 17 19 19 15 12 12 9 12 17 18 18 18 20 18 16 13
Wind_Direction
354 352 355 359 3 3 1 359 353 349 346 344 340 337 338 338 336 332 339 335 331 327 321 317 318 311 303 290 278 248 256 256 246 247 255 259 258 253 244 252 232 229 231 239 220
354 356 359 4 5 2 0 354 349 347 345 342 341 342 340 337 333 334 334 329 325 323 318 317 318 311 302 283 251 254 259 260 267 269 264 255 272 263 257 254 240 228 220 227 215
357 359 1 5 3 1 357 352 347 345 345 344 344 342 343 338 332 345 332 329 329 325 326 323 320 311 303 298 287 258 256 269 265 270 269 266 261 278 264 255 258 243 224 221 215
359 360 360 3 359 357 355 350 345 346 346 345 344 346 342 336 335 322 326 325 328 324 322 322 319 304 287 280 277 268 264 267 273 270 271 265 262 256 264 271 269 257 244 219 226
358 360 3 0 358 354 353 346 346 347 346 346 348 346 341 334 337 327 326 328 330 322 318 315 310 307 287 286 280 268 270 273 277 280 282 282 271 264 262 264 264 261 260 239 220
359 3 3 357 355 355 348 346 347 347 347 347 351 342 341 345 336 329 328 327 326 315 315 310 302 292 282 284 278 285 280 274 270 268 265 268 265 267 268 272 273 267 260 253 240
3 1 360 358 357 352 346 347 345 346 349 345 350 343 348 344 337 330 328 329 325 315 314 308 301 291 289 286 295 289 282 274 268 270 273 277 274 270 273 279 274 267 268 262 248
4 358 1 0 356 349 347 345 344 347 349 343 343 347 354 345 336 331 333 328 326 320 312 308 298 290 285 288 291 290 281 277 293 275 267 266 268 273 272 270 274 275 253 258 257
2 0 3 1 353 349 346 344 345 345 350 334 343 355 352 342 340 335 333 332 333 330 324 316 318 309 305 292 295 289 271 280 291 281 277 266 268 270 275 277 273 275 275 258 253
2 3 5 359 351 348 347 345 345 343 348 328 352 2 345 339 335 333 347 345 338 343 337 338 301 296 294 293 275 291 294 289 286 290 285 276 270 270 268 271 270 271 259 254 252
3 9 0 355 352 349 349 346 343 337 341 321 350 347 343 345 341 344 345 350 346 330 328 310 291 285 302 279 272 288 288 288 281 287 285 278 278 276 273 267 258 260 258 249 250
6 1 356 357 355 353 349 348 346 330 319 260 347 346 349 344 345 347 344 347 343 335 330 308 288 298 303 292 287 289 284 283 291 290 282 280 275 268 265 261 250 253 253 255 251
2 358 357 357 356 355 353 349 341 332 303 271 341 343 347 341 345 345 344 344 344 338 312 303 304 303 313 302 298 289 283 292 279 298 282 275 278 274 276 260 257 243 244 249 250
0 359 356 354 358 358 355 350 341 337 295 329 340 347 341 336 342 340 341 345 350 331 323 322 279 305 315 304 305 312 304 301 295 290 271 269 283 275 278 260 246 235 234 235 238
357 358 358 357 358 353 354 353 338 349 355 332 327 334 332 335 336 337 341 350 349 345 316 314 313 311 295 302 319 310 308 299 285 276 288 277 249 276 288 112 180 214 221 227 232
357 352 357 353 357 357 355 352 345 6 301 319 322 328 327 333 335 335 348 335 346 352 356 315 344 293 290 306 331 304 330 297 278 266 256 267 226 326 4 304 282 206 213 221 226
353 350 352 352 355 357 355 352 342 39 316 302 322 323 320 331 334 337 359 328 351 351 351 352 355 319 321 328 341 341 360 321 251 196 252 315 199 63 294 315 309 263 230 227 220
352 347 352 347 354 353 354 347 355 308 314 317 324 323 327 329 325 337 345 316 335 352 341 337 331 325 328 332 333 348 2 316 290 300 294 304 112 88 320 299 299 288 262 234 227
349 348 348 352 349 348 350 354 331 319 320 322 329 323 313 324 315 326 330 308 335 341 0 324 288 345 328 336 336 345 351 332 263 275 260 131 115 190 325 297 303 286 269 247 220
348 347 343 351 344 344 349 338 322 327 323 323 317 296 295 313 326 325 323 309 319 329 333 312 295 324 314 318 317 344 344 351 331 302 318 112 73 346 337 341 320 309 289 272 223
346 345 346 347 341 341 342 340 325 326 330 325 306 290 297 307 311 321 272 313 277 308 329 320 262 300 336 317 316 342 2 360 306 268 312 338 71 342 342 336 330 323 318 312 274
344 346 341 341 334 342 341 336 328 325 329 319 308 291 291 294 306 290 264 284 280 303 327 311 294 288 311 313 343 333 347 348 356 313 310 256 87 329 337 333 324 321 319 317 309
342 341 338 337 330 337 333 330 327 322 324 314 308 304 285 288 298 274 286 298 308 322 325 307 269 310 307 307 332 311 313 331 324 283 257 317 105 319 328 326 325 322 319 318 306
338 336 333 336 332 331 329 331 324 320 324 316 313 301 292 294 294 282 291 296 311 324 309 293 268 266 257 279 300 296 295 327 332 275 307 298 306 313 337 338 335 335 322 324 326
333 330 328 325 333 329 324 328 326 311 319 318 313 307 293 287 296 293 300 290 298 305 294 264 280 293 280 287 292 290 293 304 320 316 261 302 319 325 341 350 348 347 334 324 325
326 329 326 328 330 329 331 327 324 316 315 317 311 308 291 279 286 291 299 300 292 293 287 301 288 291 290 301 291 290 276 280 297 298 313 313 320 333 344 346 344 351 345 336 324
321 320 320 318 322 323 326 324 321 316 317 316 317 307 298 305 282 287 290 288 273 275 279 277 274 277 277 296 306 288 261 263 284 296 307 329 336 349 353 350 345 352 353 342 330